FW8034 Weather Reports


Display with metric or nautical units.
time (UTC)temp
F
wind
direction
speed
MPH
gust
MPH
rain 1hr
in
rain 24hr
in
rain mn
in
humidity
%
barometer
mb
20260504151022 72 243 2.0 8.0 0.00 0.00 0.00 49 1037.0
20260504150519 72 256 2.0 5.0 0.00 0.00 0.00 49 1037.1
20260504140945 67 213 1.0 2.0 0.00 0.00 0.00 53 1037.5
20260504140442 68 282 0.0 0.0 0.00 0.00 0.00 55 1037.5
20260504130406 58 238 1.0 2.0 0.00 0.00 0.00 67 1038.0
20260504110253 48 298 0.0 0.0 0.00 0.00 0.00 82 1038.3
20260504100211 47 299 0.0 0.0 0.00 0.00 0.00 83 1039.1
20260504090134 47 312 0.0 0.0 0.00 0.00 0.00 83 1039.6
20260504081604 48 304 0.0 0.0 0.00 0.00 0.00 76 1040.2
20260504081100 48 304 0.0 0.0 0.00 0.00 0.00 78 1040.1
20260504080557 48 299 0.0 0.0 0.00 0.00 0.00 78 1040.3
20260504050404 48 298 0.0 0.0 0.00 0.00 0.00 79 1042.2
20260504045901 48 301 0.0 0.0 0.00 0.00 0.00 75 1042.2
20260504045356 49 301 0.0 0.0 0.00 0.00 0.00 76 1042.5
20260504044853 49 298 0.0 0.0 0.00 0.00 0.00 75 1042.5
20260504044350 49 301 0.0 0.0 0.00 0.00 0.00 75 1042.5
20260504043848 50 301 0.0 0.0 0.00 0.00 0.00 76 1042.4
20260504043344 50 296 0.0 0.0 0.00 0.00 0.00 70 1042.8
20260504042842 50 297 0.0 0.0 0.00 0.00 0.00 67 1042.6
20260504042338 50 297 0.0 0.0 0.00 0.00 0.00 72 1042.7
20260504041834 50 311 0.0 0.0 0.00 0.00 0.00 74 1042.6
20260504041331 51 303 0.0 0.0 0.00 0.00 0.00 72 1042.8
20260504040827 51 303 0.0 0.0 0.00 0.00 0.00 71 1042.8
20260504040325 52 308 0.0 0.0 0.00 0.00 0.00 66 1042.8
20260504035820 52 303 0.0 0.0 0.00 0.00 0.00 63 1043.1
20260504035318 52 305 0.0 0.0 0.00 0.00 0.00 61 1043.0
20260504034815 52 310 0.0 0.0 0.00 0.00 0.00 64 1043.1
20260504034313 53 309 0.0 0.0 0.00 0.00 0.00 60 1043.1
20260504033809 52 311 0.0 0.0 0.00 0.00 0.00 63 1043.2
20260504033307 52 306 0.0 0.0 0.00 0.00 0.00 63 1043.3
20260504032804 52 315 0.0 0.0 0.00 0.00 0.00 63 1043.6
20260504032301 53 303 0.0 0.0 0.00 0.00 0.00 68 1043.5
20260504031757 53 302 0.0 0.0 0.00 0.00 0.00 67 1043.4
20260504031255 53 304 0.0 0.0 0.00 0.00 0.00 68 1043.5
20260504030751 52 305 0.0 0.0 0.00 0.00 0.00 68 1043.5
20260504030248 53 303 0.0 0.0 0.00 0.00 0.00 68 1043.6
20260504025744 53 303 0.0 0.0 0.00 0.00 0.00 63 1043.6
20260504025242 54 303 0.0 0.0 0.00 0.00 0.00 62 1043.8
20260504024738 54 306 0.0 0.0 0.00 0.00 0.00 57 1043.6
20260504024235 55 303 0.0 0.0 0.00 0.00 0.00 55 1043.5
20260504023732 55 303 0.0 0.0 0.00 0.00 0.00 57 1043.6
20260504023228 55 316 0.0 0.0 0.00 0.00 0.00 55 1043.5
20260504022724 54 301 0.0 0.0 0.00 0.00 0.00 61 1043.6
20260504022220 54 303 0.0 0.0 0.00 0.00 0.00 60 1043.6
20260504021718 55 303 0.0 0.0 0.00 0.00 0.00 54 1043.5
20260504021215 55 300 0.0 0.0 0.00 0.00 0.00 57 1043.5
20260504020712 55 303 0.0 0.0 0.00 0.00 0.00 55 1043.4
20260504020208 55 303 0.0 0.0 0.00 0.00 0.00 58 1043.5
20260504015705 56 306 0.0 0.0 0.00 0.00 0.00 57 1043.5
20260504015201 57 300 0.0 0.0 0.00 0.00 0.00 51 1043.4
20260504014656 58 300 0.0 0.0 0.00 0.00 0.00 49 1043.4
20260504014154 58 303 0.0 0.0 0.00 0.00 0.00 45 1043.3
20260504013652 59 300 0.0 0.0 0.00 0.00 0.00 47 1043.4
20260504013148 59 300 0.0 0.0 0.00 0.00 0.00 46 1043.4
20260504012645 60 301 0.0 0.0 0.00 0.00 0.00 46 1043.4
20260504012143 61 300 0.0 0.0 0.00 0.00 0.00 42 1043.4
20260504011640 62 297 0.0 0.0 0.00 0.00 0.00 40 1043.5
20260504011136 63 296 0.0 0.0 0.00 0.00 0.00 39 1043.4
20260504010632 64 297 0.0 0.0 0.00 0.00 0.00 36 1043.2
20260504010128 66 293 0.0 0.0 0.00 0.00 0.00 35 1043.3
20260504005625 67 286 0.0 2.0 0.00 0.00 0.00 38 1043.1
20260504005122 68 283 0.0 0.0 0.00 0.00 0.00 34 1043.4
20260504004620 69 291 0.0 1.0 0.00 0.00 0.00 32 1043.4
20260504004117 70 280 3.0 3.0 0.00 0.00 0.00 29 1043.2
20260504003613 71 282 2.0 6.0 0.00 0.00 0.00 28 1043.2
20260504003110 72 282 3.0 5.0 0.00 0.00 0.00 27 1043.3
20260504002607 72 276 3.0 6.0 0.00 0.00 0.00 26 1043.4
20260504002104 73 253 3.0 6.0 0.00 0.00 0.00 25 1043.4
20260504001602 73 265 3.0 5.0 0.00 0.00 0.00 26 1043.4
20260504001057 73 265 3.0 8.0 0.00 0.00 0.00 26 1043.5
20260504000555 73 296 3.0 6.0 0.00 0.00 0.00 25 1043.4
20260504000053 74 300 2.0 5.0 0.00 0.00 0.00 26 1043.4
20260503235551 74 290 3.0 7.0 0.00 0.00 0.00 24 1043.5
20260503235047 74 285 3.0 5.0 0.00 0.00 0.00 23 1043.4
20260503234545 74 306 4.0 7.0 0.00 0.00 0.00 24 1043.5
20260503234043 74 265 6.0 8.0 0.00 0.00 0.00 23 1043.5
20260503233539 75 275 4.0 6.0 0.00 0.00 0.00 24 1043.4
20260503233035 74 265 5.0 6.0 0.00 0.00 0.00 24 1043.6
20260503232533 74 261 3.0 6.0 0.00 0.00 0.00 23 1043.5
20260503232030 75 273 5.0 10.0 0.00 0.00 0.00 23 1043.6
20260503231528 75 340 2.0 6.0 0.00 0.00 0.00 23 1043.6
20260503231024 75 291 3.0 6.0 0.00 0.00 0.00 25 1043.6
20260503230521 75 280 3.0 8.0 0.00 0.00 0.00 25 1043.6
20260503230018 75 269 4.0 7.0 0.00 0.00 0.00 23 1043.6
20260503225514 75 242 3.0 7.0 0.00 0.00 0.00 24 1043.6
20260503225009 75 268 4.0 6.0 0.00 0.00 0.00 23 1043.6
20260503224507 75 287 5.0 8.0 0.00 0.00 0.00 25 1043.9
20260503224000 74 265 3.0 7.0 0.00 0.00 0.00 25 1043.8
20260503223457 74 345 2.0 8.0 0.00 0.00 0.00 25 1043.9
20260503222952 74 304 5.0 8.0 0.00 0.00 0.00 24 1043.6
20260503222451 74 240 4.0 7.0 0.00 0.00 0.00 26 1043.6
20260503221949 74 214 5.0 8.0 0.00 0.00 0.00 25 1043.6
20260503221447 74 259 5.0 10.0 0.00 0.00 0.00 26 1043.9
20260503220944 74 314 2.0 7.0 0.00 0.00 0.00 27 1043.8
20260503220440 73 278 6.0 8.0 0.00 0.00 0.00 25 1043.9
20260503215937 73 269 6.0 14.0 0.00 0.00 0.00 27 1043.9
20260503215434 74 41 3.0 5.0 0.00 0.00 0.00 26 1043.8
20260503214932 74 315 2.0 5.0 0.00 0.00 0.00 28 1043.9
20260503214429 74 248 3.0 6.0 0.00 0.00 0.00 29 1043.8
20260503213926 74 269 3.0 6.0 0.00 0.00 0.00 29 1044.0
20260503213425 74 313 7.0 9.0 0.00 0.00 0.00 26 1043.8
20260503212920 74 309 2.0 7.0 0.00 0.00 0.00 27 1043.9
20260503212418 75 257 2.0 7.0 0.00 0.00 0.00 27 1043.9
20260503211915 75 289 5.0 9.0 0.00 0.00 0.00 28 1043.8
20260503211412 75 283 5.0 13.0 0.00 0.00 0.00 27 1043.6
20260503210906 75 249 8.0 15.0 0.00 0.00 0.00 30 1043.6
20260503210404 75 329 6.0 14.0 0.00 0.00 0.00 30 1043.9
20260503205859 76 261 2.0 6.0 0.00 0.00 0.00 28 1044.0
20260503205356 76 271 6.0 8.0 0.00 0.00 0.00 28 1044.0
20260503204853 76 276 5.0 9.0 0.00 0.00 0.00 26 1044.0
20260503204350 76 258 3.0 7.0 0.00 0.00 0.00 29 1044.1
20260503203847 75 35 4.0 8.0 0.00 0.00 0.00 27 1044.3
20260503203344 75 281 7.0 14.0 0.00 0.00 0.00 26 1044.3
20260503202841 76 296 12.0 15.0 0.00 0.00 0.00 26 1044.3
20260503202339 76 267 2.0 6.0 0.00 0.00 0.00 26 1044.2
20260503201838 75 232 2.0 7.0 0.00 0.00 0.00 29 1044.4
20260503201334 75 250 4.0 8.0 0.00 0.00 0.00 29 1044.4
20260503200832 74 271 6.0 11.0 0.00 0.00 0.00 29 1044.2
20260503200327 75 281 5.0 15.0 0.00 0.00 0.00 29 1044.3
20260503195825 75 355 3.0 5.0 0.00 0.00 0.00 29 1044.5
20260503195321 75 264 6.0 9.0 0.00 0.00 0.00 29 1044.7
20260503194819 75 290 4.0 9.0 0.00 0.00 0.00 29 1044.4
20260503194314 75 3 7.0 9.0 0.00 0.00 0.00 28 1044.6
20260503193811 75 264 9.0 15.0 0.00 0.00 0.00 30 1044.5
20260503193307 74 280 4.0 9.0 0.00 0.00 0.00 31 1044.5
20260503192803 74 269 5.0 9.0 0.00 0.00 0.00 30 1044.7
20260503192258 74 344 6.0 16.0 0.00 0.00 0.00 30 1044.6
20260503191755 74 255 4.0 10.0 0.00 0.00 0.00 29 1044.5
20260503191252 74 143 3.0 6.0 0.00 0.00 0.00 32 1044.4
20260503190749 74 284 10.0 14.0 0.00 0.00 0.00 29 1044.5
20260503190245 74 264 7.0 15.0 0.00 0.00 0.00 29 1044.6
20260503185743 74 253 3.0 10.0 0.00 0.00 0.00 30 1044.7
20260503185238 73 258 3.0 8.0 0.00 0.00 0.00 31 1044.6
20260503184733 72 286 6.0 10.0 0.00 0.00 0.00 31 1044.6
20260503184230 72 309 5.0 7.0 0.00 0.00 0.00 34 1044.6
20260503183725 73 262 1.0 9.0 0.00 0.00 0.00 32 1044.6
20260503183223 74 278 6.0 13.0 0.00 0.00 0.00 31 1044.8
20260503182721 74 351 6.0 9.0 0.00 0.00 0.00 31 1044.5
20260503182219 74 284 3.0 9.0 0.00 0.00 0.00 31 1044.6
20260503181715 74 261 9.0 11.0 0.00 0.00 0.00 30 1044.9
20260503181212 74 285 7.0 10.0 0.00 0.00 0.00 30 1044.8
20260503180709 73 312 7.0 13.0 0.00 0.00 0.00 30 1044.9
20260503180208 73 267 4.0 9.0 0.00 0.00 0.00 31 1045.1
20260503175704 72 259 8.0 16.0 0.00 0.00 0.00 32 1044.8
20260503175202 72 310 7.0 16.0 0.00 0.00 0.00 31 1044.8
20260503174657 73 260 13.0 16.0 0.00 0.00 0.00 30 1044.9
20260503174155 73 300 8.0 15.0 0.00 0.00 0.00 32 1044.9
20260503173650 71 267 6.0 9.0 0.00 0.00 0.00 32 1044.7
20260503173147 69 300 4.0 7.0 0.00 0.00 0.00 36 1044.6
20260503172644 69 295 5.0 8.0 0.00 0.00 0.00 35 1044.7
20260503172141 69 292 7.0 9.0 0.00 0.00 0.00 34 1044.7
20260503171637 69 270 4.0 8.0 0.00 0.00 0.00 34 1044.5
20260503171135 69 282 7.0 10.0 0.00 0.00 0.00 33 1045.2
20260503170632 71 289 10.0 13.0 0.00 0.00 0.00 34 1045.2
20260503170128 71 265 8.0 11.0 0.00 0.00 0.00 34 1045.1